{"data":{"norad_id":63249,"intl_designator":"2025-052AR","name":"EZIE-C","alt_names":[],"object_type":"PAYLOAD","status":"ACTIVE","operator":null,"country":"US","launch_date":"2025-03-15","launch_site_code":"AFWTR","launch_vehicle":null,"mission":null,"orbit_class":"UNKNOWN","rcs_meters":null,"size_class":null,"mass_kg":null,"dimensions":null,"purposes":[],"wikipedia_slug":null,"has_3d_model":false,"image_url":null,"decayed_at":null,"tle_current":{"epoch":"2026-05-24T23:35:58.545600Z","epoch_age_seconds":86570,"freshness":"FRESH","line1":"1 63249U 25052AR  26144.98331650  .00004167  00000+0  36623-3 0  9990","line2":"2 63249  97.6906  37.4175 0001484 331.0339  29.0800 14.97089281 65198","mean_motion":14.97089281,"eccentricity":0.0001484,"inclination_deg":97.6906,"raan_deg":37.4175,"arg_perigee_deg":331.0339,"mean_anomaly_deg":29.08,"bstar":0.00036623,"rev_number":6519,"period_min":96.18664820298,"perigee_km":574.86338327619,"apogee_km":576.92734008114,"semimajor_km":6954.0323616787,"source":"CELESTRAK","updated_at":"2026-05-25T13:38:03.604782Z"}}}